Time,TemperatureF,DewpointF,PressureIn,WindDirection,WindDirectionDegrees,WindSpeedMPH,WindSpeedGustMPH,Humidity,HourlyPrecipIn,Conditions,Clouds,dailyrainin,SoftwareType,DateUTC
2013-08-11 00:01:00,65.5,65.5,30.09,SE,139,0.0,0.0,100,0.00,,,0.00,meteohub,2013-08-11 04:01:00,
2013-08-11 00:06:00,65.3,65.3,30.09,SE,140,0.0,0.0,100,0.00,,,0.00,meteohub,2013-08-11 04:06:00,
2013-08-11 00:11:00,65.1,65.1,30.09,SE,140,0.0,0.0,100,0.00,,,0.00,meteohub,2013-08-11 04:11:00,
2013-08-11 00:16:00,65.1,65.1,30.09,SE,139,0.0,0.0,100,0.00,,,0.00,meteohub,2013-08-11 04:16:00,
2013-08-11 00:21:00,64.9,64.9,30.09,SE,139,0.0,0.0,100,0.00,,,0.00,meteohub,2013-08-11 04:21:00,
2013-08-11 00:26:00,64.9,64.9,30.09,SE,140,0.0,0.0,100,0.00,,,0.00,meteohub,2013-08-11 04:26:00,
2013-08-11 00:31:00,64.9,64.9,30.09,SE,140,0.0,0.0,100,0.00,,,0.00,meteohub,2013-08-11 04:31:00,
2013-08-11 00:36:00,64.9,64.9,30.09,SE,139,0.0,0.0,100,0.00,,,0.00,meteohub,2013-08-11 04:36:00,
2013-08-11 00:41:00,64.9,64.9,30.09,SE,140,0.0,0.0,100,0.00,,,0.00,meteohub,2013-08-11 04:41:00,
2013-08-11 00:46:00,64.9,64.9,30.09,SE,140,0.0,0.0,100,0.00,,,0.00,meteohub,2013-08-11 04:46:00,
2013-08-11 00:51:00,64.8,64.8,30.09,SE,141,0.0,1.0,100,0.00,,,0.00,meteohub,2013-08-11 04:51:00,
2013-08-11 00:56:00,64.8,64.8,30.09,West,262,0.0,1.0,100,0.00,,,0.00,meteohub,2013-08-11 04:56:00,
2013-08-11 01:01:00,64.6,64.6,30.09,West,262,0.0,1.0,100,0.00,,,0.00,meteohub,2013-08-11 05:01:00,
2013-08-11 01:07:00,64.6,64.6,30.09,West,262,0.0,1.0,100,0.00,,,0.00,meteohub,2013-08-11 05:07:00,
2013-08-11 01:12:00,64.4,64.4,30.09,West,262,0.0,1.0,100,0.00,,,0.00,meteohub,2013-08-11 05:12:00,
2013-08-11 01:17:00,64.2,64.2,30.09,West,262,0.0,0.0,100,0.00,,,0.00,meteohub,2013-08-11 05:17:00,
2013-08-11 01:22:00,64.2,64.2,30.09,West,261,0.0,0.0,100,0.00,,,0.00,meteohub,2013-08-11 05:22:00,
2013-08-11 01:27:00,64.2,64.2,30.09,West,262,0.0,0.0,100,0.00,,,0.00,meteohub,2013-08-11 05:27:00,
2013-08-11 01:32:00,64.2,64.2,30.09,West,262,0.0,0.0,100,0.00,,,0.00,meteohub,2013-08-11 05:32:00,
2013-08-11 01:37:00,64.2,64.2,30.09,West,262,0.0,0.0,100,0.01,,,0.01,meteohub,2013-08-11 05:37:00,
2013-08-11 01:42:00,64.2,64.2,30.09,West,262,0.0,0.0,100,0.01,,,0.01,meteohub,2013-08-11 05:42:00,
2013-08-11 01:47:00,64.0,64.0,30.09,SSW,197,0.0,0.0,100,0.01,,,0.01,meteohub,2013-08-11 05:47:00,
2013-08-11 01:52:00,64.0,64.0,30.09,SSW,197,0.0,0.0,100,0.01,,,0.01,meteohub,2013-08-11 05:52:00,
2013-08-11 01:57:00,63.9,63.9,30.09,SSW,197,0.0,0.0,100,0.01,,,0.01,meteohub,2013-08-11 05:57:00,
2013-08-11 02:02:00,63.9,63.9,30.09,SSW,197,0.0,0.0,100,0.01,,,0.01,meteohub,2013-08-11 06:02:00,
2013-08-11 02:08:00,63.9,63.9,30.09,SSW,197,0.0,0.0,100,0.01,,,0.01,meteohub,2013-08-11 06:08:00,
2013-08-11 02:13:00,64.0,64.0,30.08,SSW,197,0.0,0.0,100,0.01,,,0.01,meteohub,2013-08-11 06:13:00,
2013-08-11 02:18:00,63.9,63.9,30.09,SSW,197,0.0,0.0,100,0.01,,,0.01,meteohub,2013-08-11 06:18:00,
2013-08-11 02:23:00,63.9,63.9,30.09,SSW,197,0.0,0.0,100,0.01,,,0.01,meteohub,2013-08-11 06:23:00,
2013-08-11 02:28:00,63.7,63.7,30.09,SSW,197,0.0,0.0,100,0.01,,,0.01,meteohub,2013-08-11 06:28:00,
2013-08-11 02:33:00,63.7,63.7,30.09,SSW,197,0.0,0.0,100,0.01,,,0.01,meteohub,2013-08-11 06:33:00,
2013-08-11 02:38:00,63.7,63.7,30.09,SSW,197,0.0,0.0,100,0.00,,,0.01,meteohub,2013-08-11 06:38:00,
2013-08-11 02:43:00,63.5,63.5,30.09,SSW,197,0.0,0.0,100,0.00,,,0.01,meteohub,2013-08-11 06:43:00,
2013-08-11 02:49:00,63.5,63.5,30.09,SSW,197,0.0,0.0,100,0.00,,,0.01,meteohub,2013-08-11 06:49:00,
2013-08-11 02:54:00,63.3,63.3,30.09,SSW,197,0.0,0.0,100,0.00,,,0.01,meteohub,2013-08-11 06:54:00,
2013-08-11 02:59:00,63.1,63.1,30.09,SSW,197,0.0,0.0,100,0.00,,,0.01,meteohub,2013-08-11 06:59:00,
2013-08-11 03:04:00,63.3,63.3,30.09,SSW,197,0.0,0.0,100,0.00,,,0.01,meteohub,2013-08-11 07:04:00,
2013-08-11 03:09:00,63.3,63.3,30.09,SSW,197,0.0,0.0,100,0.00,,,0.01,meteohub,2013-08-11 07:09:00,
2013-08-11 03:15:00,63.3,63.3,30.09,SSW,197,0.0,0.0,100,0.00,,,0.01,meteohub,2013-08-11 07:15:00,
2013-08-11 03:20:00,63.1,63.1,30.09,SSW,197,0.0,0.0,100,0.00,,,0.01,meteohub,2013-08-11 07:20:00,
2013-08-11 03:25:00,63.1,63.1,30.09,SSW,197,0.0,0.0,100,0.00,,,0.01,meteohub,2013-08-11 07:25:00,
2013-08-11 03:30:00,63.1,63.1,30.09,SSW,197,0.0,0.0,100,0.00,,,0.01,meteohub,2013-08-11 07:30:00,
2013-08-11 03:35:00,62.4,62.4,30.09,SSW,198,0.0,0.0,100,0.00,,,0.01,meteohub,2013-08-11 07:35:00,
2013-08-11 07:24:00,63.5,63.5,30.11,North,-999,-999.0,-999.0,100,-99.99,,,0.01,meteohub,2013-08-11 11:24:00,
2013-08-11 07:29:00,63.7,63.7,30.12,North,-999,-999.0,-999.0,100,-99.99,,,0.01,meteohub,2013-08-11 11:29:00,
2013-08-11 07:34:00,64.0,64.0,30.11,SSE,153,0.0,-999.0,100,0.00,,,0.01,meteohub,2013-08-11 11:34:00,
2013-08-11 07:40:00,64.0,64.0,30.11,SSE,153,0.0,0.0,100,0.00,,,0.01,meteohub,2013-08-11 11:40:00,
2013-08-11 07:45:00,64.2,64.2,30.11,SSE,153,0.0,0.0,100,0.00,,,0.01,meteohub,2013-08-11 11:45:00,
2013-08-11 07:50:00,64.2,64.2,30.11,SSE,154,0.0,0.0,100,0.00,,,0.01,meteohub,2013-08-11 11:50:00,
2013-08-11 07:55:00,64.4,64.4,30.11,SSE,153,0.0,0.0,100,0.00,,,0.01,meteohub,2013-08-11 11:55:00,
2013-08-11 08:00:00,64.8,64.8,30.11,SSE,153,0.0,0.0,100,0.00,,,0.01,meteohub,2013-08-11 12:00:00,
2013-08-11 08:06:00,65.5,65.5,30.11,SE,133,0.0,1.0,100,0.00,,,0.01,meteohub,2013-08-11 12:06:00,
2013-08-11 08:12:00,65.7,65.7,30.11,SSE,163,1.0,1.0,100,0.00,,,0.01,meteohub,2013-08-11 12:12:00,
2013-08-11 08:17:00,65.8,65.8,30.12,SE,129,0.0,1.0,100,0.00,,,0.01,meteohub,2013-08-11 12:17:00,
2013-08-11 08:22:00,65.8,65.8,30.12,ESE,121,0.0,1.0,100,0.00,,,0.01,meteohub,2013-08-11 12:22:00,
2013-08-11 08:27:00,66.0,66.0,30.12,East,99,0.0,1.0,100,0.00,,,0.01,meteohub,2013-08-11 12:27:00,
2013-08-11 08:32:00,66.7,66.7,30.12,ESE,110,0.0,1.0,100,0.00,,,0.01,meteohub,2013-08-11 12:32:00,
2013-08-11 08:37:00,67.8,67.8,30.12,SSE,155,0.0,1.0,100,0.00,,,0.01,meteohub,2013-08-11 12:37:00,
2013-08-11 08:42:00,68.7,68.7,30.12,SSE,148,0.0,1.0,100,0.00,,,0.01,meteohub,2013-08-11 12:42:00,
2013-08-11 08:47:00,69.1,69.1,30.12,SE,130,0.0,2.0,100,0.00,,,0.01,meteohub,2013-08-11 12:47:00,
2013-08-11 08:52:00,69.3,69.3,30.12,ESE,103,0.0,2.0,100,0.00,,,0.01,meteohub,2013-08-11 12:52:00,
2013-08-11 08:57:00,69.6,69.6,30.12,ESE,105,0.0,1.0,100,0.00,,,0.01,meteohub,2013-08-11 12:57:00,
2013-08-11 09:03:00,70.2,70.2,30.12,WNW,288,0.0,1.0,100,0.00,,,0.01,meteohub,2013-08-11 13:03:00,
2013-08-11 09:08:00,70.9,70.9,30.12,NNE,20,0.0,1.0,100,0.00,,,0.01,meteohub,2013-08-11 13:08:00,
2013-08-11 09:13:00,71.8,70.5,30.12,NW,307,0.0,1.0,96,0.00,,,0.01,meteohub,2013-08-11 13:13:00,
2013-08-11 09:18:00,73.0,71.2,30.12,NW,311,0.0,1.0,94,0.00,,,0.01,meteohub,2013-08-11 13:18:00,
2013-08-11 09:23:00,75.0,72.0,30.13,WSW,252,0.0,1.0,90,0.00,,,0.01,meteohub,2013-08-11 13:23:00,
2013-08-11 09:28:00,75.6,70.3,30.12,WSW,257,0.0,1.0,84,0.00,,,0.01,meteohub,2013-08-11 13:28:00,
2013-08-11 09:33:00,75.7,70.5,30.12,WSW,257,0.0,3.0,84,0.00,,,0.01,meteohub,2013-08-11 13:33:00,
2013-08-11 09:38:00,75.7,70.9,30.12,South,188,0.0,3.0,85,0.00,,,0.01,meteohub,2013-08-11 13:38:00,
2013-08-11 09:43:00,76.5,70.9,30.12,SSW,207,1.0,1.0,83,0.00,,,0.01,meteohub,2013-08-11 13:43:00,
2013-08-11 09:48:00,76.1,70.2,30.12,ESE,119,0.0,3.0,82,0.00,,,0.01,meteohub,2013-08-11 13:48:00,
2013-08-11 09:54:00,76.8,70.2,30.12,SSE,168,1.0,4.0,80,0.00,,,0.01,meteohub,2013-08-11 13:54:00,
2013-08-11 09:59:00,77.5,70.5,30.12,East,94,0.0,4.0,79,0.00,,,0.01,meteohub,2013-08-11 13:59:00,
2013-08-11 10:04:00,78.1,71.4,30.12,SE,131,0.0,4.0,80,0.00,,,0.01,meteohub,2013-08-11 14:04:00,
2013-08-11 10:10:00,79.0,72.0,30.12,East,100,1.0,2.0,79,0.00,,,0.01,meteohub,2013-08-11 14:10:00,
2013-08-11 10:15:00,79.3,71.1,30.12,East,91,0.0,3.0,76,0.00,,,0.01,meteohub,2013-08-11 14:15:00,
2013-08-11 10:20:00,79.7,71.8,30.12,SE,135,2.0,4.0,77,0.00,,,0.01,meteohub,2013-08-11 14:20:00,
2013-08-11 10:25:00,80.6,71.6,30.12,WNW,295,1.0,4.0,74,0.00,,,0.01,meteohub,2013-08-11 14:25:00,
2013-08-11 10:30:00,79.9,71.2,30.12,North,3,0.0,4.0,75,0.00,,,0.01,meteohub,2013-08-11 14:30:00,
2013-08-11 10:36:00,79.9,70.9,30.12,West,267,0.0,3.0,74,0.00,,,0.01,meteohub,2013-08-11 14:36:00,
2013-08-11 10:41:00,80.6,71.6,30.12,ENE,70,2.0,3.0,74,0.00,,,0.01,meteohub,2013-08-11 14:41:00,
2013-08-11 10:47:00,80.6,71.6,30.12,East,93,0.0,3.0,74,0.00,,,0.01,meteohub,2013-08-11 14:47:00,
2013-08-11 10:52:00,81.5,72.0,30.12,NE,44,0.0,3.0,73,0.00,,,0.01,meteohub,2013-08-11 14:52:00,
2013-08-11 10:57:00,82.2,72.0,30.11,NW,308,1.0,3.0,71,0.00,,,0.01,meteohub,2013-08-11 14:57:00,
2013-08-11 11:02:00,82.0,72.1,30.11,WSW,252,4.0,4.0,72,0.00,,,0.01,meteohub,2013-08-11 15:02:00,
2013-08-11 11:07:00,81.7,71.8,30.11,West,262,2.0,6.0,72,0.00,,,0.01,meteohub,2013-08-11 15:07:00,
2013-08-11 11:12:00,82.0,71.2,30.11,SE,127,1.0,6.0,70,0.00,,,0.01,meteohub,2013-08-11 15:12:00,
2013-08-11 11:17:00,81.9,71.1,30.11,SSW,193,1.0,6.0,70,0.00,,,0.01,meteohub,2013-08-11 15:17:00,
2013-08-11 11:22:00,82.2,72.3,30.11,South,176,1.0,4.0,72,0.00,,,0.01,meteohub,2013-08-11 15:22:00,
2013-08-11 11:27:00,82.8,70.7,30.11,West,264,0.0,4.0,67,0.00,,,0.01,meteohub,2013-08-11 15:27:00,
2013-08-11 11:32:00,83.1,72.0,30.11,East,82,1.0,3.0,69,0.00,,,0.01,meteohub,2013-08-11 15:32:00,
2013-08-11 11:37:00,83.7,71.6,30.10,SSE,150,1.0,3.0,67,0.00,,,0.01,meteohub,2013-08-11 15:37:00,
2013-08-11 11:42:00,82.9,70.9,30.10,WSW,255,5.0,5.0,67,0.00,,,0.01,meteohub,2013-08-11 15:42:00,
2013-08-11 11:47:00,82.8,71.1,30.10,SSE,158,1.0,7.0,68,0.00,,,0.01,meteohub,2013-08-11 15:47:00,
2013-08-11 11:52:00,83.7,72.0,30.10,SE,124,1.0,7.0,68,0.00,,,0.01,meteohub,2013-08-11 15:52:00,
2013-08-11 11:57:00,83.1,70.2,30.10,SSW,195,2.0,7.0,65,0.00,,,0.01,meteohub,2013-08-11 15:57:00,
2013-08-11 12:02:00,82.8,70.2,30.10,West,260,3.0,8.0,66,0.00,,,0.01,meteohub,2013-08-11 16:02:00,
2013-08-11 12:07:00,82.6,69.6,30.10,SW,224,5.0,8.0,65,0.00,,,0.01,meteohub,2013-08-11 16:07:00,
2013-08-11 12:12:00,82.4,70.7,30.10,NNW,348,0.0,11.0,68,0.00,,,0.01,meteohub,2013-08-11 16:12:00,
2013-08-11 12:17:00,83.3,69.8,30.10,West,274,3.0,11.0,64,0.00,,,0.01,meteohub,2013-08-11 16:17:00,
2013-08-11 12:22:00,82.6,70.5,30.10,North,354,1.0,11.0,67,0.00,,,0.01,meteohub,2013-08-11 16:22:00,
2013-08-11 12:28:00,82.4,70.7,30.10,WSW,252,2.0,7.0,68,0.00,,,0.01,meteohub,2013-08-11 16:28:00,
2013-08-11 12:34:00,83.8,70.3,30.10,North,353,1.0,8.0,64,0.00,,,0.01,meteohub,2013-08-11 16:34:00,
2013-08-11 12:39:00,83.8,70.0,30.10,SE,138,3.0,8.0,63,0.00,,,0.01,meteohub,2013-08-11 16:39:00,
2013-08-11 12:44:00,81.9,69.4,30.10,West,274,0.0,5.0,66,0.00,,,0.01,meteohub,2013-08-11 16:44:00,
2013-08-11 12:49:00,81.5,70.7,30.10,East,99,1.0,5.0,70,0.00,,,0.01,meteohub,2013-08-11 16:49:00,
2013-08-11 12:54:00,81.1,69.6,30.10,NNW,328,1.0,5.0,68,0.00,,,0.01,meteohub,2013-08-11 16:54:00,
2013-08-11 13:00:00,80.6,70.0,30.09,South,177,0.0,4.0,70,0.00,,,0.01,meteohub,2013-08-11 17:00:00,
2013-08-11 13:05:00,79.9,68.7,30.09,West,271,0.0,4.0,69,0.00,,,0.01,meteohub,2013-08-11 17:05:00,
2013-08-11 13:10:00,79.3,70.7,30.09,East,100,0.0,4.0,75,0.00,,,0.01,meteohub,2013-08-11 17:10:00,
2013-08-11 13:15:00,80.8,71.2,30.09,SE,128,0.0,3.0,73,0.00,,,0.01,meteohub,2013-08-11 17:15:00,
2013-08-11 13:20:00,82.2,72.0,30.08,SE,131,4.0,6.0,71,0.00,,,0.01,meteohub,2013-08-11 17:20:00,
2013-08-11 13:25:00,83.5,72.3,30.08,East,85,7.0,7.0,69,0.00,,,0.01,meteohub,2013-08-11 17:25:00,
2013-08-11 13:30:00,83.1,72.0,30.08,East,92,0.0,8.0,69,0.00,,,0.01,meteohub,2013-08-11 17:30:00,
2013-08-11 13:36:00,83.1,72.0,30.08,ENE,57,0.0,8.0,69,0.00,,,0.01,meteohub,2013-08-11 17:36:00,
2013-08-11 13:41:00,82.6,71.8,30.07,ESE,115,0.0,8.0,70,0.00,,,0.01,meteohub,2013-08-11 17:41:00,
2013-08-11 13:46:00,81.3,71.4,30.07,North,351,0.0,5.0,72,0.00,,,0.01,meteohub,2013-08-11 17:46:00,
2013-08-11 13:51:00,80.8,72.9,30.07,NW,304,0.0,4.0,77,0.00,,,0.01,meteohub,2013-08-11 17:51:00,
2013-08-11 13:56:00,80.2,72.0,30.07,NNE,30,0.0,4.0,76,0.00,,,0.01,meteohub,2013-08-11 17:56:00,
2013-08-11 14:01:00,79.9,72.9,30.08,SE,124,0.0,1.0,79,0.00,,,0.01,meteohub,2013-08-11 18:01:00,
2013-08-11 14:06:00,79.5,73.9,30.08,SE,137,1.0,1.0,83,0.00,,,0.01,meteohub,2013-08-11 18:06:00,
2013-08-11 14:11:00,79.2,73.2,30.08,ESE,119,1.0,4.0,82,0.00,,,0.01,meteohub,2013-08-11 18:11:00,
2013-08-11 14:16:00,78.4,73.2,30.07,SE,146,2.0,7.0,84,0.00,,,0.01,meteohub,2013-08-11 18:16:00,
2013-08-11 14:22:00,77.9,73.4,30.07,SE,142,1.0,7.0,86,0.00,,,0.01,meteohub,2013-08-11 18:22:00,
2013-08-11 14:27:00,77.4,72.9,30.06,East,99,1.0,6.0,86,0.00,,,0.01,meteohub,2013-08-11 18:27:00,
2013-08-11 14:32:00,76.8,73.0,30.07,SE,146,1.0,5.0,88,0.00,,,0.01,meteohub,2013-08-11 18:32:00,
2013-08-11 14:38:00,76.6,73.2,30.06,East,98,0.0,5.0,89,0.00,,,0.01,meteohub,2013-08-11 18:38:00,
2013-08-11 14:43:00,76.8,73.4,30.06,SE,127,0.0,5.0,89,0.00,,,0.01,meteohub,2013-08-11 18:43:00,
2013-08-11 14:49:00,77.2,73.4,30.07,South,181,2.0,3.0,88,0.00,,,0.01,meteohub,2013-08-11 18:49:00,
2013-08-11 14:54:00,76.8,71.6,30.07,SW,228,3.0,5.0,84,0.00,,,0.01,meteohub,2013-08-11 18:54:00,
2013-08-11 14:59:00,75.9,71.1,30.06,SE,136,0.0,5.0,85,0.00,,,0.01,meteohub,2013-08-11 18:59:00,
2013-08-11 15:04:00,75.7,71.6,30.07,WSW,250,0.0,6.0,87,0.00,,,0.01,meteohub,2013-08-11 19:04:00,
2013-08-11 15:09:00,75.6,71.4,30.07,ESE,105,0.0,6.0,87,0.00,,,0.01,meteohub,2013-08-11 19:09:00,
2013-08-11 15:14:00,75.0,70.9,30.07,ESE,118,3.0,6.0,87,0.00,,,0.01,meteohub,2013-08-11 19:14:00,
2013-08-11 15:20:00,74.7,70.9,30.06,East,90,1.0,6.0,88,0.00,,,0.01,meteohub,2013-08-11 19:20:00,
2013-08-11 15:25:00,73.9,70.5,30.06,SSE,150,0.0,4.0,89,0.00,,,0.01,meteohub,2013-08-11 19:25:00,
2013-08-11 15:30:00,74.7,71.2,30.06,SSE,153,2.0,6.0,89,0.00,,,0.01,meteohub,2013-08-11 19:30:00,
2013-08-11 15:35:00,76.6,72.5,30.05,ESE,118,0.0,6.0,87,0.00,,,0.01,meteohub,2013-08-11 19:35:00,
2013-08-11 15:40:00,78.6,72.0,30.05,East,101,3.0,6.0,80,0.00,,,0.01,meteohub,2013-08-11 19:40:00,
2013-08-11 15:46:00,79.3,71.4,30.05,East,96,0.0,6.0,77,0.00,,,0.01,meteohub,2013-08-11 19:46:00,
2013-08-11 15:51:00,79.5,71.6,30.05,ESE,116,0.0,6.0,77,0.00,,,0.01,meteohub,2013-08-11 19:51:00,
2013-08-11 15:56:00,78.6,71.2,30.05,ESE,116,0.0,6.0,78,0.00,,,0.01,meteohub,2013-08-11 19:56:00,
2013-08-11 16:01:00,78.3,72.0,30.06,NNE,18,0.0,6.0,81,0.00,,,0.01,meteohub,2013-08-11 20:01:00,
2013-08-11 16:06:00,77.9,72.3,30.06,SE,146,0.0,6.0,83,0.00,,,0.01,meteohub,2013-08-11 20:06:00,
2013-08-11 16:12:00,77.2,72.3,30.06,NNW,333,0.0,3.0,85,0.00,,,0.01,meteohub,2013-08-11 20:12:00,
2013-08-11 16:17:00,76.3,71.8,30.06,ESE,116,0.0,2.0,86,0.00,,,0.01,meteohub,2013-08-11 20:17:00,
2013-08-11 16:22:00,75.4,71.2,30.06,South,191,0.0,3.0,87,0.00,,,0.01,meteohub,2013-08-11 20:22:00,
2013-08-11 16:27:00,74.8,71.1,30.06,SE,137,0.0,3.0,88,0.00,,,0.01,meteohub,2013-08-11 20:27:00,
2013-08-11 16:32:00,74.5,71.4,30.06,SE,132,0.0,3.0,90,0.00,,,0.01,meteohub,2013-08-11 20:32:00,
2013-08-11 16:37:00,73.9,70.9,30.06,NW,311,0.0,2.0,90,0.00,,,0.01,meteohub,2013-08-11 20:37:00,
2013-08-11 16:42:00,73.8,70.3,30.05,NW,326,0.0,2.0,89,0.00,,,0.01,meteohub,2013-08-11 20:42:00,
2013-08-11 16:47:00,73.6,70.2,30.05,East,81,0.0,2.0,89,0.00,,,0.01,meteohub,2013-08-11 20:47:00,
2013-08-11 16:52:00,73.2,70.2,30.05,NE,44,0.0,3.0,90,0.00,,,0.01,meteohub,2013-08-11 20:52:00,
2013-08-11 16:57:00,73.2,70.2,30.05,NNW,344,0.0,3.0,90,0.00,,,0.01,meteohub,2013-08-11 20:57:00,
2013-08-11 17:02:00,73.9,70.9,30.06,NNW,346,0.0,3.0,90,0.00,,,0.01,meteohub,2013-08-11 21:02:00,
2013-08-11 17:07:00,75.2,70.7,30.06,West,260,0.0,2.0,86,0.00,,,0.01,meteohub,2013-08-11 21:07:00,
2013-08-11 17:12:00,78.3,73.0,30.05,West,271,0.0,1.0,84,0.00,,,0.01,meteohub,2013-08-11 21:12:00,
2013-08-11 17:17:00,79.2,72.1,30.05,East,80,1.0,1.0,79,0.00,,,0.01,meteohub,2013-08-11 21:17:00,
2013-08-11 17:22:00,78.8,71.4,30.05,ESE,103,0.0,4.0,78,0.00,,,0.01,meteohub,2013-08-11 21:22:00,
2013-08-11 17:27:00,79.7,71.8,30.05,North,4,0.0,4.0,77,0.00,,,0.01,meteohub,2013-08-11 21:27:00,
2013-08-11 17:32:00,79.9,71.2,30.04,East,89,0.0,3.0,75,0.00,,,0.01,meteohub,2013-08-11 21:32:00,
2013-08-11 17:37:00,79.9,72.0,30.04,SE,138,0.0,2.0,77,0.00,,,0.01,meteohub,2013-08-11 21:37:00,
2013-08-11 17:42:00,79.3,71.1,30.04,ESE,117,0.0,2.0,76,0.00,,,0.01,meteohub,2013-08-11 21:42:00,
2013-08-11 17:47:00,79.0,72.0,30.05,East,100,0.0,1.0,79,0.00,,,0.01,meteohub,2013-08-11 21:47:00,
2013-08-11 17:52:00,78.3,72.0,30.05,West,274,0.0,1.0,81,0.00,,,0.01,meteohub,2013-08-11 21:52:00,
2013-08-11 17:57:00,77.7,72.1,30.05,WSW,243,0.0,1.0,83,0.00,,,0.01,meteohub,2013-08-11 21:57:00,
2013-08-11 18:02:00,77.2,72.3,30.05,West,262,0.0,1.0,85,0.00,,,0.01,meteohub,2013-08-11 22:02:00,
2013-08-11 18:07:00,76.3,71.8,30.05,West,263,0.0,1.0,86,0.00,,,0.01,meteohub,2013-08-11 22:07:00,
2013-08-11 18:12:00,75.9,72.1,30.05,West,262,0.0,1.0,88,0.00,,,0.01,meteohub,2013-08-11 22:12:00,
2013-08-11 18:17:00,75.6,72.1,30.05,SSW,210,0.0,1.0,89,0.00,,,0.01,meteohub,2013-08-11 22:17:00,
2013-08-11 18:22:00,75.4,72.3,30.05,SSW,211,0.0,0.0,90,0.00,,,0.01,meteohub,2013-08-11 22:22:00,
2013-08-11 18:27:00,75.2,71.8,30.05,SSW,195,0.0,0.0,89,0.00,,,0.01,meteohub,2013-08-11 22:27:00,
2013-08-11 18:32:00,75.0,72.0,30.05,SW,222,0.0,0.0,90,0.00,,,0.01,meteohub,2013-08-11 22:32:00,
2013-08-11 18:37:00,75.0,72.0,30.05,SW,222,0.0,0.0,90,0.00,,,0.01,meteohub,2013-08-11 22:37:00,
2013-08-11 18:42:00,75.0,71.2,30.04,West,276,0.0,0.0,88,0.00,,,0.01,meteohub,2013-08-11 22:42:00,
2013-08-11 18:47:00,75.4,72.3,30.04,East,99,0.0,0.0,90,0.00,,,0.01,meteohub,2013-08-11 22:47:00,
2013-08-11 18:52:00,75.9,72.1,30.04,East,98,0.0,1.0,88,0.00,,,0.01,meteohub,2013-08-11 22:52:00,
2013-08-11 18:57:00,75.9,71.8,30.05,West,260,0.0,1.0,87,0.00,,,0.01,meteohub,2013-08-11 22:57:00,
2013-08-11 19:02:00,76.5,72.3,30.05,SSE,153,0.0,1.0,87,0.00,,,0.01,meteohub,2013-08-11 23:02:00,
2013-08-11 19:07:00,76.3,72.1,30.05,WSW,238,0.0,1.0,87,0.00,,,0.01,meteohub,2013-08-11 23:07:00,
2013-08-11 19:12:00,75.9,72.1,30.06,WSW,240,0.0,1.0,88,0.00,,,0.01,meteohub,2013-08-11 23:12:00,
2013-08-11 19:17:00,75.6,71.8,30.06,SSW,204,0.0,1.0,88,0.00,,,0.01,meteohub,2013-08-11 23:17:00,
2013-08-11 19:22:00,75.0,71.2,30.06,SW,222,0.0,1.0,88,0.00,,,0.01,meteohub,2013-08-11 23:22:00,
2013-08-11 19:27:00,74.5,70.7,30.06,SSW,212,0.0,2.0,88,0.00,,,0.01,meteohub,2013-08-11 23:27:00,
2013-08-11 19:33:00,73.8,70.0,30.06,SE,146,3.0,3.0,88,0.00,,,0.01,meteohub,2013-08-11 23:33:00,
2013-08-11 19:38:00,73.2,69.8,30.06,NW,306,1.0,3.0,89,0.00,,,0.01,meteohub,2013-08-11 23:38:00,
2013-08-11 19:43:00,72.9,69.4,30.06,West,273,1.0,3.0,89,0.00,,,0.01,meteohub,2013-08-11 23:43:00,
2013-08-11 19:48:00,72.7,70.0,30.07,SW,233,0.0,3.0,91,0.00,,,0.01,meteohub,2013-08-11 23:48:00,
2013-08-11 19:53:00,72.3,69.6,30.07,SSE,158,0.0,2.0,91,0.00,,,0.01,meteohub,2013-08-11 23:53:00,
2013-08-11 19:59:00,72.0,69.3,30.07,WSW,250,0.0,2.0,91,0.00,,,0.01,meteohub,2013-08-11 23:59:00,
2013-08-11 20:04:00,72.0,69.4,30.07,NW,318,0.0,5.0,92,0.00,,,0.01,meteohub,2013-08-12 00:04:00,
2013-08-11 20:09:00,71.8,69.6,30.07,SSE,150,0.0,5.0,93,0.00,,,0.00,meteohub,2013-08-12 00:09:00,
2013-08-11 20:14:00,71.2,69.1,30.06,SSE,155,3.0,3.0,93,0.00,,,0.00,meteohub,2013-08-12 00:14:00,
2013-08-11 20:19:00,71.1,69.3,30.06,East,100,0.0,3.0,94,0.00,,,0.00,meteohub,2013-08-12 00:19:00,
2013-08-11 20:24:00,70.5,68.7,30.06,East,100,0.0,5.0,94,0.00,,,0.00,meteohub,2013-08-12 00:24:00,
2013-08-11 20:29:00,70.2,68.7,30.05,East,100,0.0,5.0,95,0.00,,,0.00,meteohub,2013-08-12 00:29:00,
2013-08-11 20:34:00,70.0,68.5,30.05,SE,127,0.0,2.0,95,0.00,,,0.00,meteohub,2013-08-12 00:34:00,
2013-08-11 20:39:00,69.8,68.5,30.06,SE,127,0.0,2.0,96,0.00,,,0.00,meteohub,2013-08-12 00:39:00,
2013-08-11 20:45:00,69.4,68.5,30.06,SE,127,0.0,2.0,97,0.00,,,0.00,meteohub,2013-08-12 00:45:00,
2013-08-11 20:50:00,69.1,68.2,30.06,SE,127,0.0,2.0,97,0.00,,,0.00,meteohub,2013-08-12 00:50:00,
2013-08-11 20:55:00,69.1,68.2,30.06,NW,322,0.0,0.0,97,0.00,,,0.00,meteohub,2013-08-12 00:55:00,
2013-08-11 21:00:00,68.7,67.8,30.06,North,0,0.0,1.0,97,0.00,,,0.00,meteohub,2013-08-12 01:00:00,
2013-08-11 21:05:00,68.4,67.5,30.06,North,0,0.0,1.0,97,0.00,,,0.00,meteohub,2013-08-12 01:05:00,
2013-08-11 21:10:00,68.2,67.6,30.06,North,1,0.0,1.0,98,0.00,,,0.00,meteohub,2013-08-12 01:10:00,
2013-08-11 21:15:00,68.2,67.6,30.05,North,1,0.0,0.0,98,0.01,,,0.01,meteohub,2013-08-12 01:15:00,
2013-08-11 21:20:00,67.8,67.3,30.06,North,1,0.0,0.0,98,0.01,,,0.01,meteohub,2013-08-12 01:20:00,
2013-08-11 21:25:00,67.6,67.1,30.06,North,1,0.0,0.0,98,0.01,,,0.01,meteohub,2013-08-12 01:25:00,
2013-08-11 21:31:00,67.5,66.9,30.06,North,1,0.0,0.0,98,0.01,,,0.01,meteohub,2013-08-12 01:31:00,
2013-08-11 21:36:00,67.3,66.7,30.06,North,352,0.0,0.0,98,0.01,,,0.01,meteohub,2013-08-12 01:36:00,
2013-08-11 21:41:00,67.3,66.9,30.07,NW,309,0.0,0.0,99,0.01,,,0.01,meteohub,2013-08-12 01:41:00,
2013-08-11 21:47:00,67.1,66.6,30.07,NW,309,0.0,0.0,98,0.01,,,0.01,meteohub,2013-08-12 01:47:00,
2013-08-11 21:52:00,66.9,66.6,30.07,NW,309,0.0,0.0,99,0.01,,,0.01,meteohub,2013-08-12 01:52:00,
2013-08-11 21:57:00,66.7,66.4,30.08,NW,309,0.0,0.0,99,0.01,,,0.01,meteohub,2013-08-12 01:57:00,
2013-08-11 22:02:00,66.7,66.4,30.08,NW,309,0.0,0.0,99,0.01,,,0.01,meteohub,2013-08-12 02:02:00,
2013-08-11 22:07:00,66.7,66.4,30.08,NW,309,0.0,0.0,99,0.01,,,0.01,meteohub,2013-08-12 02:07:00,
2013-08-11 22:12:00,66.7,66.4,30.09,NW,309,0.0,0.0,99,0.00,,,0.01,meteohub,2013-08-12 02:12:00,
2013-08-11 22:17:00,66.6,66.2,30.09,WNW,298,0.0,0.0,99,0.00,,,0.01,meteohub,2013-08-12 02:17:00,
2013-08-11 22:22:00,66.6,66.2,30.09,WNW,297,0.0,0.0,99,0.00,,,0.01,meteohub,2013-08-12 02:22:00,
2013-08-11 22:27:00,66.4,66.0,30.09,WNW,298,0.0,0.0,99,0.00,,,0.01,meteohub,2013-08-12 02:27:00,
2013-08-11 22:32:00,66.4,66.0,30.09,WNW,300,0.0,0.0,99,0.00,,,0.01,meteohub,2013-08-12 02:32:00,
2013-08-11 22:38:00,66.0,65.7,30.09,WNW,300,0.0,0.0,99,0.00,,,0.01,meteohub,2013-08-12 02:38:00,
2013-08-11 22:44:00,66.2,65.8,30.09,WNW,300,0.0,0.0,99,0.00,,,0.01,meteohub,2013-08-12 02:44:00,
2013-08-11 22:49:00,65.8,65.5,30.08,North,355,0.0,0.0,99,0.00,,,0.01,meteohub,2013-08-12 02:49:00,
2013-08-11 22:54:00,65.8,65.5,30.08,North,354,0.0,0.0,99,0.00,,,0.01,meteohub,2013-08-12 02:54:00,
2013-08-11 22:59:00,66.0,65.7,30.09,West,278,0.0,0.0,99,0.00,,,0.01,meteohub,2013-08-12 02:59:00,
2013-08-11 23:04:00,66.0,65.7,30.09,NW,310,0.0,1.0,99,0.00,,,0.01,meteohub,2013-08-12 03:04:00,
2013-08-11 23:09:00,66.0,65.7,30.09,NW,310,0.0,1.0,99,0.00,,,0.01,meteohub,2013-08-12 03:09:00,
2013-08-11 23:14:00,66.0,65.7,30.09,NW,304,0.0,1.0,99,0.00,,,0.01,meteohub,2013-08-12 03:14:00,
2013-08-11 23:19:00,66.0,65.7,30.09,WNW,303,0.0,0.0,99,0.00,,,0.01,meteohub,2013-08-12 03:19:00,
2013-08-11 23:24:00,65.8,65.5,30.09,NW,305,0.0,0.0,99,0.00,,,0.01,meteohub,2013-08-12 03:24:00,
2013-08-11 23:29:00,65.7,65.3,30.09,West,267,0.0,0.0,99,0.00,,,0.01,meteohub,2013-08-12 03:29:00,
2013-08-11 23:34:00,65.8,65.8,30.10,NW,308,0.0,1.0,100,0.00,,,0.01,meteohub,2013-08-12 03:34:00,
2013-08-11 23:39:00,65.8,65.5,30.10,NW,308,0.0,1.0,99,0.00,,,0.01,meteohub,2013-08-12 03:39:00,
2013-08-11 23:45:00,65.7,65.3,30.10,NW,308,0.0,1.0,99,0.00,,,0.01,meteohub,2013-08-12 03:45:00,
2013-08-11 23:50:00,65.7,65.3,30.09,NW,308,0.0,1.0,99,0.00,,,0.01,meteohub,2013-08-12 03:50:00,
2013-08-11 23:56:00,65.5,65.1,30.09,NW,308,0.0,0.0,99,0.00,,,0.01,meteohub,2013-08-12 03:56:00,